Location: Altleiningen
(49.5078°N, 8.0741°E)
Time: 11:41:31
(UTC+00:00)

Cosmos 2360 Rocket - Pass Details

Date: 03 March 2021
Orbit: 832 x 846 km, 71.0° (Epoch: 13 April)

Event Time Altitude Azimuth Distance (km) Brightness Sun altitude
Rises 18:37:27 0° 197° (SSW) 3,376 5.5 -14.3°
Reaches altitude 10° 18:39:54 10° 195° (SSW) 2,448 4.7 -14.7°
Maximum altitude 18:45:28 67° 114° (ESE) 913 2.1 -15.6°
Drops below altitude 10° 18:51:05 10° 33° (NNE) 2,474 4.4 -16.5°
Sets 18:53:33 0° 31° (NNE) 3,415 5.1 -16.9°
